DW6267 Weather Reports


time (UTC)temp
C
wind
direction
speed
KPH
gust
KPH
rain 1hr
cm
rain 24hr
cm
rain mn
cm
humidity
%
barometer
mb
20260506220348 20 244 6.4 0.0 0.00 0.00 0.00 34 1012.8
20260506210341 20 326 6.4 0.0 0.00 0.00 0.00 38 1012.5
20260506200345 21 321 6.4 0.0 0.00 0.00 0.00 37 1012.5
20260506190346 20 311 6.4 0.0 0.00 0.00 0.00 45 1012.5
20260506180346 20 256 6.4 0.0 0.00 0.00 0.00 47 1012.6
20260506170348 20 300 6.4 0.0 0.00 0.00 0.00 49 1012.3
20260506160349 18 284 8.0 0.0 0.00 0.00 0.00 52 1013.6
20260506150331 15 17 3.2 0.0 0.00 0.00 0.00 61 1013.1
20260506140351 5 347 0.0 0.0 0.00 0.00 0.00 92 1013.4
20260506130340 5 346 0.0 0.0 0.00 0.00 0.00 93 1013.5
20260506120347 5 346 0.0 0.0 0.00 0.00 0.00 92 1012.5
20260506110346 6 17 0.0 0.0 0.00 0.00 0.00 90 1012.8
20260506100346 6 17 0.0 0.0 0.00 0.00 0.00 91 1012.5
20260506090343 7 17 0.0 0.0 0.00 0.00 0.00 85 1012.3
20260506080404 7 250 0.0 0.0 0.00 0.00 0.00 84 1012.3
20260506070337 7 250 0.0 0.0 0.00 0.00 0.00 85 1012.0
20260506060343 8 250 0.0 0.0 0.00 0.00 0.00 82 1012.0
20260506050344 10 250 0.0 0.0 0.00 0.00 0.00 79 1010.9
20260506040347 10 250 0.0 0.0 0.00 0.00 0.00 76 1010.4
20260506030350 12 250 0.0 0.0 0.00 0.00 0.00 72 1010.1
20260506020337 15 250 0.0 0.0 0.00 0.00 0.00 63 1009.9
20260506010334 20 283 0.0 0.0 0.00 0.00 0.00 42 1009.6
20260506000349 23 332 0.0 0.0 0.00 0.00 0.00 32 1009.2
20260505230359 23 202 3.2 0.0 0.00 0.00 0.00 30 1009.3